Location: Moscow
(38.3171°N, 79.0889°W)
Time: 23:30:24
(UTC+00:00)

BREEZE-M DEB (TANK) - Pass Details

Date: 07 November 2025
Orbit: 284 x 18358 km, 52.5° (Epoch: 14 December)

Event Time Altitude Azimuth Distance (km) Brightness Sun altitude
Rises 23:42:59 0° 258° (WSW) 1,953 7.3 -18.5°
Reaches altitude 10° 23:44:29 10° 273° (W) 1,260 5.9 -18.8°
Maximum altitude 23:46:36 30° 340° (NNW) 856 3.9 -19.2°
Enters shadow 23:48:04 22° 21° (NNE) 1,294 4.4 -19.5°
